QPF
0.00 0.00 0.00 0.00 0.01 0.02 0.03 0.02 0.06 0.01 0.01 0.01 0.00 0.00 0.00 0.00 0.00 0.02 0.02 0.03 0.01 0.00 0.00 0.00 0.00 0.01 0.02 0.02 0.01 0.01 0.01 0.01 0.02 0.04 0.05 0.04 0.05 0.10 0.11 0.06 0.04 0.04 0.04 0.04 0.03 0.02 0.02 0.03 0.03
0.00 0.00 0.00 0.01 0.02 0.05 0.03 0.02 0.02 0.01 0.01 0.01 0.00 0.00 0.00 0.00 0.01 0.01 0.02 0.02 0.01 0.00 0.00 0.00 0.00 0.01 0.02 0.02 0.01 0.01 0.01 0.01 0.02 0.04 0.07 0.10 0.11 0.11 0.08 0.04 0.03 0.03 0.04 0.04 0.04 0.03 0.02 0.03 0.03
0.00 0.00 0.01 0.01 0.03 0.04 0.02 0.02 0.02 0.02 0.01 0.00 0.00 0.00 0.00 0.00 0.01 0.01 0.01 0.02 0.01 0.01 0.00 0.00 0.01 0.02 0.01 0.01 0.00 0.00 0.00 0.01 0.02 0.03 0.07 0.15 0.14 0.10 0.06 0.04 0.03 0.03 0.03 0.03 0.04 0.03 0.02 0.02 0.03
0.00 0.00 0.01 0.02 0.02 0.02 0.02 0.02 0.02 0.02 0.01 0.00 0.00 0.01 0.00 0.00 0.00 0.02 0.03 0.02 0.03 0.01 0.01 0.01 0.00 0.00 0.00 0.00 0.01 0.01 0.01 0.01 0.03 0.04 0.06 0.10 0.11 0.09 0.06 0.04 0.03 0.02 0.02 0.03 0.03 0.03 0.02 0.02 0.03
0.00 0.00 0.01 0.02 0.02 0.01 0.02 0.02 0.01 0.01 0.00 0.00 0.01 0.01 0.01 0.01 0.00 0.01 0.01 0.01 0.01 0.01 0.00 0.00 0.00 0.00 0.00 0.01 0.01 0.02 0.02 0.02 0.02 0.03 0.03 0.04 0.06 0.05 0.04 0.04 0.03 0.03 0.03 0.04 0.04 0.02 0.01 0.01 0.02
0.00 0.02 0.01 0.02 0.03 0.02 0.02 0.02 0.02 0.01 0.00 0.00 0.01 0.01 0.01 0.01 0.00 0.00 0.00 0.01 0.02 0.02 0.01 0.01 0.01 0.01 0.01 0.01 0.01 0.01 0.01 0.01 0.01 0.02 0.02 0.04 0.04 0.04 0.05 0.04 0.05 0.05 0.05 0.04 0.03 0.02 0.01 0.01 0.01
0.02 0.04 0.01 0.02 0.03 0.03 0.02 0.01 0.02 0.01 0.01 0.01 0.01 0.01 0.01 0.01 0.01 0.01 0.00 0.01 0.03 0.04 0.02 0.01 0.01 0.01 0.01 0.01 0.01 0.02 0.01 0.01 0.01 0.01 0.01 0.03 0.04 0.04 0.04 0.04 0.06 0.04 0.04 0.04 0.02 0.02 0.01 0.01 0.02
0.01 0.01 0.01 0.01 0.03 0.03 0.02 0.02 0.02 0.01 0.01 0.01 0.01 0.01 0.01 0.02 0.02 0.02 0.02 0.02 0.03 0.03 0.02 0.01 0.01 0.00 0.00 0.00 0.01 0.03 0.02 0.01 0.01 0.01 0.01 0.02 0.03 0.04 0.05 0.04 0.04 0.03 0.03 0.03 0.02 0.03 0.03 0.02 0.03
0.00 0.01 0.00 0.01 0.01 0.02 0.03 0.03 0.02 0.02 0.01 0.01 0.01 0.01 0.01 0.02 0.04 0.04 0.04 0.03 0.03 0.04 0.04 0.01 0.01 0.01 0.00 0.00 0.01 0.02 0.02 0.01 0.01 0.01 0.02 0.02 0.01 0.03 0.04 0.03 0.04 0.04 0.04 0.03 0.03 0.03 0.02 0.03 0.03
0.00 0.01 0.01 0.02 0.02 0.02 0.03 0.03 0.03 0.02 0.02 0.02 0.01 0.01 0.01 0.02 0.08 0.07 0.05 0.06 0.05 0.05 0.06 0.04 0.03 0.03 0.01 0.00 0.00 0.00 0.01 0.00 0.01 0.01 0.02 0.02 0.01 0.02 0.02 0.02 0.03 0.04 0.04 0.04 0.05 0.04 0.03 0.03 0.02
0.01 0.01 0.02 0.02 0.02 0.02 0.05 0.04 0.04 0.02 0.03 0.02 0.01 0.02 0.02 0.02 0.04 0.04 0.03 0.03 0.04 0.05 0.07 0.06 0.04 0.04 0.04 0.02 0.01 0.00 0.01 0.01 0.01 0.01 0.01 0.01 0.01 0.01 0.01 0.01 0.02 0.03 0.04 0.05 0.06 0.05 0.05 0.04 0.03
0.01 0.01 0.01 0.01 0.01 0.01 0.02 0.02 0.02 0.02 0.01 0.00 0.00 0.01 0.01 0.02 0.01 0.01 0.01 0.01 0.02 0.03 0.06 0.12 0.09 0.05 0.05 0.03 0.02 0.02 0.01 0.01 0.01 0.01 0.01 0.01 0.02 0.02 0.02 0.02 0.02 0.02 0.02 0.04 0.08 0.10 0.09 0.08 0.05
0.01 0.01 0.01 0.01 0.01 0.01 0.01 0.01 0.01 0.01 0.01 0.00 0.01 0.01 0.02 0.02 0.03 0.02 0.03 0.05 0.02 0.02 0.04 0.17 0.15 0.08 0.07 0.06 0.05 0.03 0.02 0.02 0.03 0.04 0.03 0.02 0.02 0.02 0.02 0.02 0.03 0.02 0.02 0.04 0.06 0.08 0.10 0.10 0.06
0.01 0.01 0.01 0.00 0.00 0.01 0.00 0.01 0.01 0.01 0.01 0.01 0.01 0.00 0.00 0.00 0.03 0.05 0.05 0.09 0.03 0.01 0.03 0.12 0.13 0.09 0.10 0.08 0.05 0.04 0.03 0.03 0.04 0.04 0.03 0.03 0.02 0.02 0.02 0.01 0.01 0.01 0.03 0.05 0.07 0.06 0.06 0.08 0.09
0.01 0.01 0.01 0.01 0.01 0.01 0.01 0.01 0.01 0.02 0.02 0.01 0.00 0.00 0.00 0.00 0.01 0.05 0.07 0.08 0.05 0.02 0.03 0.06 0.09 0.08 0.10 0.08 0.04 0.03 0.03 0.03 0.02 0.02 0.02 0.03 0.03 0.02 0.03 0.02 0.01 0.02 0.02 0.04 0.04 0.04 0.06 0.10 0.12
0.01 0.01 0.01 0.01 0.01 0.01 0.01 0.01 0.02 0.04 0.03 0.01 0.01 0.00 0.00 0.00 0.01 0.03 0.06 0.12 0.08 0.05 0.05 0.05 0.08 0.09 0.12 0.11 0.08 0.07 0.05 0.04 0.03 0.02 0.02 0.03 0.03 0.03 0.03 0.02 0.02 0.03 0.04 0.04 0.03 0.04 0.07 0.08 0.08
0.01 0.01 0.01 0.01 0.01 0.01 0.01 0.01 0.04 0.03 0.02 0.01 0.01 0.00 0.01 0.02 0.02 0.01 0.03 0.11 0.11 0.06 0.08 0.05 0.09 0.13 0.16 0.15 0.15 0.13 0.10 0.07 0.04 0.03 0.02 0.03 0.02 0.03 0.03 0.03 0.03 0.04 0.05 0.05 0.04 0.04 0.05 0.05 0.07
0.01 0.01 0.01 0.02 0.02 0.02 0.01 0.01 0.02 0.02 0.01 0.01 0.01 0.01 0.01 0.02 0.02 0.01 0.03 0.04 0.08 0.09 0.11 0.10 0.10 0.13 0.14 0.11 0.13 0.13 0.08 0.08 0.07 0.04 0.03 0.03 0.02 0.02 0.02 0.02 0.02 0.04 0.06 0.05 0.05 0.04 0.05 0.08 0.10
0.00 0.00 0.01 0.01 0.01 0.02 0.02 0.01 0.01 0.02 0.02 0.01 0.01 0.01 0.01 0.01 0.02 0.01 0.02 0.03 0.05 0.07 0.08 0.08 0.08 0.07 0.08 0.06 0.07 0.06 0.04 0.05 0.09 0.07 0.04 0.03 0.03 0.03 0.03 0.03 0.03 0.04 0.06 0.08 0.09 0.08 0.07 0.09 0.10
0.00 0.00 0.00 0.01 0.01 0.01 0.02 0.02 0.02 0.02 0.02 0.02 0.03 0.02 0.01 0.01 0.01 0.01 0.01 0.02 0.03 0.06 0.08 0.08 0.06 0.04 0.04 0.05 0.04 0.05 0.04 0.03 0.04 0.06 0.04 0.03 0.03 0.03 0.03 0.04 0.04 0.05 0.05 0.07 0.09 0.09 0.08 0.08 0.08
0.00 0.00 0.00 0.00 0.01 0.01 0.02 0.03 0.05 0.05 0.04 0.03 0.03 0.02 0.02 0.01 0.01 0.01 0.01 0.02 0.03 0.03 0.05 0.06 0.06 0.04 0.04 0.03 0.03 0.03 0.03 0.03 0.03 0.04 0.03 0.02 0.02 0.03 0.03 0.03 0.03 0.04 0.05 0.06 0.08 0.06 0.06 0.07 0.07
0.00 0.00 0.00 0.00 0.01 0.03 0.04 0.08 0.13 0.09 0.05 0.05 0.04 0.02 0.02 0.02 0.02 0.02 0.02 0.03 0.03 0.03 0.02 0.02 0.03 0.04 0.04 0.04 0.04 0.04 0.04 0.03 0.04 0.03 0.02 0.01 0.02 0.02 0.02 0.02 0.02 0.03 0.04 0.05 0.08 0.09 0.08 0.08 0.08
0.00 0.00 0.00 0.00 0.01 0.02 0.04 0.07 0.10 0.09 0.07 0.07 0.06 0.04 0.03 0.03 0.05 0.05 0.04 0.05 0.07 0.06 0.05 0.04 0.03 0.04 0.05 0.05 0.05 0.04 0.04 0.03 0.02 0.01 0.01 0.01 0.01 0.01 0.01 0.01 0.01 0.02 0.03 0.05 0.07 0.09 0.09 0.09 0.08
0.00 0.00 0.01 0.01 0.02 0.03 0.03 0.04 0.05 0.05 0.06 0.06 0.05 0.04 0.03 0.04 0.04 0.04 0.04 0.06 0.11 0.12 0.07 0.05 0.04 0.04 0.04 0.04 0.04 0.05 0.04 0.03 0.02 0.01 0.01 0.01 0.01 0.01 0.01 0.01 0.01 0.01 0.01 0.03 0.04 0.04 0.06 0.07 0.05
0.00 0.00 0.01 0.02 0.02 0.03 0.02 0.03 0.04 0.04 0.06 0.05 0.06 0.07 0.03 0.03 0.03 0.03 0.03 0.05 0.05 0.08 0.06 0.04 0.03 0.02 0.03 0.03 0.03 0.04 0.04 0.04 0.03 0.03 0.02 0.01 0.01 0.01 0.01 0.01 0.00 0.01 0.01 0.02 0.03 0.04 0.04 0.04 0.04
0.00 0.01 0.02 0.03 0.02 0.02 0.03 0.04 0.05 0.05 0.05 0.05 0.05 0.05 0.03 0.03 0.03 0.04 0.05 0.04 0.04 0.09 0.10 0.06 0.04 0.04 0.04 0.05 0.05 0.05 0.04 0.03 0.04 0.04 0.04 0.02 0.01 0.01 0.01 0.01 0.01 0.01 0.01 0.01 0.02 0.03 0.03 0.03 0.03
0.00 0.01 0.01 0.02 0.03 0.04 0.05 0.05 0.06 0.05 0.05 0.06 0.05 0.05 0.05 0.05 0.06 0.05 0.04 0.03 0.02 0.03 0.04 0.04 0.04 0.04 0.04 0.06 0.06 0.07 0.06 0.05 0.04 0.03 0.03 0.02 0.02 0.01 0.01 0.02 0.03 0.03 0.02 0.01 0.01 0.03 0.02 0.03 0.03
0.01 0.01 0.01 0.02 0.03 0.04 0.05 0.05 0.04 0.04 0.05 0.05 0.03 0.02 0.04 0.06 0.04 0.03 0.03 0.02 0.01 0.01 0.02 0.03 0.04 0.04 0.04 0.04 0.05 0.05 0.06 0.06 0.06 0.05 0.04 0.03 0.03 0.02 0.02 0.03 0.04 0.04 0.02 0.01 0.02 0.03 0.03 0.02 0.03
0.00 0.01 0.01 0.02 0.03 0.04 0.05 0.04 0.03 0.04 0.05 0.04 0.03 0.02 0.02 0.03 0.03 0.04 0.04 0.02 0.01 0.01 0.01 0.02 0.03 0.03 0.03 0.03 0.04 0.04 0.05 0.05 0.06 0.07 0.06 0.05 0.06 0.05 0.06 0.06 0.05 0.04 0.03 0.02 0.01 0.01 0.02 0.02 0.04
0.00 0.01 0.01 0.03 0.04 0.05 0.06 0.06 0.05 0.04 0.05 0.05 0.04 0.02 0.02 0.03 0.04 0.03 0.02 0.02 0.02 0.01 0.01 0.01 0.02 0.02 0.03 0.04 0.05 0.05 0.05 0.05 0.06 0.09 0.10 0.11 0.10 0.11 0.10 0.09 0.06 0.03 0.03 0.03 0.02 0.01 0.01 0.01 0.03
MSLP
1007.33 1008.29 1009.45 1010.61 1011.57 1012.15 1012.23 1011.79 1010.90 1009.72 1008.47 1007.35 1006.55 1006.14 1006.12 1006.39 1006.82 1007.23 1007.51 1007.58 1007.44 1007.17 1006.86 1006.63 1006.57 1006.70 1007.01 1007.42 1007.86 1008.25 1008.53 1008.68 1008.74 1008.75 1008.75 1008.79 1008.87 1008.98 1009.07 1009.12 1009.08 1008.96 1008.76 1008.52 1008.30 1008.14 1008.09 1008.15 1008.34
1007.73 1008.87 1010.10 1011.21 1012.00 1012.32 1012.09 1011.33 1010.15 1008.75 1007.35 1006.16 1005.33 1004.93 1004.94 1005.25 1005.73 1006.20 1006.56 1006.73 1006.73 1006.62 1006.49 1006.43 1006.51 1006.75 1007.13 1007.57 1008.01 1008.39 1008.65 1008.80 1008.86 1008.86 1008.86 1008.89 1008.94 1009.01 1009.06 1009.06 1008.99 1008.84 1008.64 1008.41 1008.20 1008.05 1007.99 1008.05 1008.22
1008.28 1009.54 1010.78 1011.78 1012.38 1012.43 1011.91 1010.87 1009.47 1007.90 1006.41 1005.18 1004.35 1003.95 1003.96 1004.27 1004.74 1005.23 1005.62 1005.87 1005.99 1006.04 1006.08 1006.18 1006.41 1006.76 1007.21 1007.69 1008.14 1008.51 1008.76 1008.91 1008.96 1008.97 1008.96 1008.97 1008.99 1009.01 1009.01 1008.97 1008.87 1008.72 1008.53 1008.34 1008.17 1008.06 1008.03 1008.08 1008.24
1008.90 1010.20 1011.39 1012.25 1012.63 1012.43 1011.67 1010.44 1008.90 1007.26 1005.75 1004.54 1003.72 1003.34 1003.33 1003.60 1004.02 1004.47 1004.85 1005.14 1005.35 1005.51 1005.70 1005.96 1006.31 1006.76 1007.26 1007.77 1008.22 1008.59 1008.84 1008.99 1009.05 1009.07 1009.07 1009.05 1009.04 1009.02 1008.98 1008.90 1008.78 1008.64 1008.49 1008.36 1008.25 1008.20 1008.21 1008.28 1008.43
1009.51 1010.78 1011.84 1012.52 1012.68 1012.28 1011.35 1010.02 1008.44 1006.84 1005.39 1004.26 1003.51 1003.14 1003.11 1003.32 1003.66 1004.03 1004.36 1004.65 1004.90 1005.15 1005.43 1005.80 1006.25 1006.76 1007.29 1007.80 1008.25 1008.60 1008.86 1009.03 1009.12 1009.16 1009.18 1009.17 1009.14 1009.09 1009.01 1008.90 1008.78 1008.66 1008.55 1008.48 1008.45 1008.47 1008.53 1008.63 1008.78
1010.04 1011.18 1012.06 1012.52 1012.48 1011.92 1010.90 1009.55 1008.04 1006.57 1005.28 1004.29 1003.64 1003.32 1003.27 1003.42 1003.66 1003.93 1004.19 1004.44 1004.69 1004.98 1005.33 1005.75 1006.24 1006.77 1007.30 1007.79 1008.21 1008.56 1008.83 1009.02 1009.16 1009.25 1009.31 1009.33 1009.31 1009.25 1009.15 1009.02 1008.89 1008.78 1008.72 1008.71 1008.75 1008.83 1008.95 1009.08 1009.24
1010.41 1011.35 1012.00 1012.23 1012.00 1011.32 1010.27 1008.99 1007.64 1006.36 1005.29 1004.49 1003.98 1003.73 1003.68 1003.76 1003.91 1004.09 1004.27 1004.47 1004.70 1005.00 1005.37 1005.81 1006.29 1006.80 1007.29 1007.73 1008.12 1008.45 1008.73 1008.97 1009.17 1009.34 1009.47 1009.54 1009.55 1009.49 1009.38 1009.24 1009.10 1009.00 1008.96 1009.00 1009.10 1009.24 1009.41 1009.58 1009.74
1010.59 1011.29 1011.68 1011.68 1011.27 1010.51 1009.48 1008.32 1007.16 1006.12 1005.29 1004.70 1004.34 1004.17 1004.13 1004.17 1004.25 1004.34 1004.45 1004.61 1004.82 1005.11 1005.48 1005.91 1006.36 1006.82 1007.24 1007.63 1007.97 1008.28 1008.58 1008.86 1009.14 1009.40 1009.62 1009.77 1009.82 1009.79 1009.68 1009.53 1009.38 1009.28 1009.25 1009.31 1009.45 1009.64 1009.85 1010.05 1010.23
1010.59 1011.04 1011.16 1010.94 1010.38 1009.56 1008.59 1007.56 1006.60 1005.80 1005.19 1004.79 1004.57 1004.47 1004.45 1004.46 1004.48 1004.52 1004.59 1004.72 1004.92 1005.21 1005.57 1005.97 1006.39 1006.79 1007.14 1007.46 1007.76 1008.05 1008.36 1008.71 1009.07 1009.42 1009.73 1009.96 1010.08 1010.08 1009.99 1009.83 1009.67 1009.56 1009.54 1009.61 1009.77 1010.00 1010.24 1010.48 1010.68
1010.47 1010.66 1010.55 1010.13 1009.46 1008.61 1007.69 1006.79 1006.01 1005.40 1004.97 1004.71 1004.58 1004.53 1004.50 1004.48 1004.47 1004.47 1004.52 1004.65 1004.87 1005.16 1005.53 1005.92 1006.30 1006.65 1006.95 1007.21 1007.47 1007.76 1008.09 1008.48 1008.92 1009.36 1009.77 1010.08 1010.27 1010.31 1010.24 1010.10 1009.94 1009.83 1009.80 1009.88 1010.05 1010.30 1010.57 1010.84 1011.08
1010.27 1010.26 1009.96 1009.40 1008.64 1007.78 1006.91 1006.12 1005.46 1004.98 1004.66 1004.48 1004.38 1004.32 1004.26 1004.20 1004.15 1004.13 1004.18 1004.32 1004.56 1004.89 1005.27 1005.67 1006.04 1006.36 1006.63 1006.87 1007.11 1007.39 1007.75 1008.18 1008.68 1009.20 1009.68 1010.07 1010.32 1010.42 1010.40 1010.28 1010.14 1010.04 1010.02 1010.10 1010.29 1010.55 1010.85 1011.16 1011.43
1010.08 1009.92 1009.48 1008.83 1008.04 1007.19 1006.37 1005.65 1005.07 1004.65 1004.36 1004.17 1004.04 1003.91 1003.79 1003.67 1003.57 1003.52 1003.57 1003.72 1003.99 1004.35 1004.77 1005.19 1005.58 1005.91 1006.18 1006.42 1006.67 1006.97 1007.34 1007.81 1008.35 1008.92 1009.45 1009.90 1010.22 1010.39 1010.42 1010.35 1010.26 1010.19 1010.19 1010.29 1010.50 1010.78 1011.11 1011.44 1011.75
1009.94 1009.68 1009.18 1008.50 1007.71 1006.90 1006.14 1005.47 1004.92 1004.51 1004.18 1003.92 1003.69 1003.47 1003.24 1003.02 1002.84 1002.75 1002.77 1002.92 1003.21 1003.59 1004.04 1004.49 1004.92 1005.28 1005.59 1005.87 1006.16 1006.48 1006.89 1007.38 1007.94 1008.53 1009.10 1009.59 1009.96 1010.19 1010.30 1010.31 1010.28 1010.28 1010.32 1010.46 1010.69 1011.00 1011.34 1011.70 1012.04
1009.88 1009.58 1009.07 1008.41 1007.68 1006.93 1006.23 1005.61 1005.08 1004.63 1004.24 1003.87 1003.51 1003.14 1002.77 1002.43 1002.15 1001.97 1001.93 1002.04 1002.31 1002.68 1003.14 1003.62 1004.09 1004.52 1004.90 1005.24 1005.59 1005.97 1006.40 1006.91 1007.47 1008.07 1008.64 1009.16 1009.57 1009.87 1010.06 1010.16 1010.23 1010.31 1010.43 1010.62 1010.88 1011.21 1011.57 1011.95 1012.31
1009.88 1009.58 1009.10 1008.52 1007.87 1007.23 1006.62 1006.05 1005.53 1005.05 1004.57 1004.09 1003.60 1003.08 1002.56 1002.08 1001.67 1001.38 1001.23 1001.25 1001.44 1001.76 1002.19 1002.68 1003.19 1003.68 1004.14 1004.57 1005.00 1005.44 1005.92 1006.44 1007.00 1007.58 1008.14 1008.66 1009.10 1009.46 1009.74 1009.95 1010.12 1010.30 1010.50 1010.76 1011.06 1011.41 1011.79 1012.17 1012.55
1009.92 1009.64 1009.22 1008.74 1008.22 1007.71 1007.20 1006.71 1006.22 1005.72 1005.19 1004.62 1004.01 1003.36 1002.71 1002.09 1001.53 1001.09 1000.80 1000.68 1000.74 1000.95 1001.31 1001.76 1002.28 1002.82 1003.36 1003.89 1004.41 1004.94 1005.46 1006.00 1006.55 1007.11 1007.65 1008.16 1008.62 1009.03 1009.38 1009.69 1009.97 1010.25 1010.54 1010.85 1011.20 1011.57 1011.96 1012.35 1012.73
1009.96 1009.71 1009.38 1009.02 1008.65 1008.28 1007.90 1007.51 1007.08 1006.59 1006.03 1005.41 1004.72 1003.98 1003.22 1002.48 1001.79 1001.19 1000.73 1000.42 1000.30 1000.35 1000.58 1000.95 1001.43 1002.00 1002.61 1003.23 1003.85 1004.46 1005.04 1005.61 1006.16 1006.69 1007.20 1007.69 1008.16 1008.60 1009.01 1009.41 1009.78 1010.15 1010.52 1010.90 1011.28 1011.67 1012.07 1012.46 1012.85
1009.98 1009.76 1009.53 1009.31 1009.09 1008.88 1008.64 1008.35 1007.99 1007.54 1006.99 1006.35 1005.64 1004.86 1004.03 1003.20 1002.40 1001.65 1001.01 1000.50 1000.16 1000.02 1000.07 1000.31 1000.72 1001.27 1001.91 1002.61 1003.31 1004.00 1004.65 1005.25 1005.80 1006.32 1006.81 1007.28 1007.74 1008.20 1008.66 1009.11 1009.57 1010.01 1010.44 1010.86 1011.28 1011.69 1012.10 1012.50 1012.90
1009.97 1009.81 1009.69 1009.60 1009.54 1009.47 1009.36 1009.18 1008.89 1008.48 1007.97 1007.35 1006.64 1005.86 1005.02 1004.15 1003.26 1002.40 1001.59 1000.89 1000.33 999.96 999.80 999.87 1000.17 1000.66 1001.29 1002.02 1002.78 1003.54 1004.25 1004.89 1005.46 1005.97 1006.45 1006.90 1007.36 1007.83 1008.31 1008.81 1009.31 1009.81 1010.28 1010.74 1011.18 1011.61 1012.03 1012.45 1012.88
1009.95 1009.88 1009.88 1009.93 1010.01 1010.07 1010.06 1009.95 1009.72 1009.35 1008.86 1008.27 1007.59 1006.84 1006.03 1005.16 1004.24 1003.30 1002.37 1001.50 1000.74 1000.15 999.77 999.64 999.79 1000.17 1000.75 1001.46 1002.25 1003.04 1003.80 1004.48 1005.08 1005.60 1006.08 1006.53 1006.99 1007.47 1007.97 1008.49 1009.01 1009.54 1010.04 1010.52 1010.98 1011.43 1011.87 1012.32 1012.78
1009.97 1010.01 1010.14 1010.33 1010.53 1010.69 1010.74 1010.67 1010.44 1010.08 1009.60 1009.03 1008.38 1007.68 1006.92 1006.10 1005.20 1004.24 1003.25 1002.26 1001.33 1000.54 999.96 999.62 999.58 999.81 1000.28 1000.93 1001.69 1002.49 1003.27 1003.98 1004.60 1005.16 1005.65 1006.12 1006.59 1007.08 1007.59 1008.13 1008.67 1009.20 1009.72 1010.21 1010.69 1011.15 1011.62 1012.10 1012.59
1010.08 1010.25 1010.52 1010.84 1011.13 1011.35 1011.42 1011.33 1011.07 1010.66 1010.15 1009.57 1008.95 1008.30 1007.61 1006.86 1006.03 1005.11 1004.11 1003.06 1002.03 1001.09 1000.32 999.78 999.54 999.58 999.90 1000.43 1001.11 1001.87 1002.64 1003.36 1004.01 1004.60 1005.14 1005.64 1006.14 1006.65 1007.18 1007.72 1008.27 1008.81 1009.33 1009.83 1010.31 1010.79 1011.28 1011.79 1012.32
1010.30 1010.62 1011.03 1011.45 1011.81 1012.04 1012.09 1011.94 1011.60 1011.11 1010.53 1009.91 1009.29 1008.68 1008.07 1007.41 1006.68 1005.84 1004.89 1003.84 1002.77 1001.73 1000.81 1000.10 999.65 999.49 999.62 999.99 1000.54 1001.21 1001.92 1002.64 1003.31 1003.94 1004.52 1005.08 1005.62 1006.17 1006.72 1007.28 1007.83 1008.37 1008.89 1009.38 1009.86 1010.35 1010.86 1011.39 1011.95
1010.65 1011.11 1011.64 1012.14 1012.54 1012.75 1012.74 1012.49 1012.03 1011.43 1010.76 1010.08 1009.44 1008.86 1008.31 1007.75 1007.14 1006.41 1005.55 1004.57 1003.51 1002.42 1001.40 1000.54 999.91 999.55 999.46 999.63 1000.02 1000.55 1001.19 1001.86 1002.53 1003.19 1003.82 1004.44 1005.04 1005.64 1006.23 1006.81 1007.37 1007.90 1008.41 1008.90 1009.37 1009.86 1010.36 1010.91 1011.48
1011.12 1011.69 1012.30 1012.85 1013.24 1013.41 1013.31 1012.95 1012.38 1011.66 1010.89 1010.14 1009.47 1008.90 1008.41 1007.94 1007.44 1006.84 1006.11 1005.22 1004.20 1003.13 1002.06 1001.08 1000.29 999.74 999.44 999.40 999.59 999.98 1000.49 1001.10 1001.75 1002.42 1003.10 1003.77 1004.43 1005.08 1005.72 1006.32 1006.89 1007.42 1007.92 1008.39 1008.85 1009.32 1009.82 1010.35 1010.92
1011.66 1012.30 1012.94 1013.48 1013.84 1013.95 1013.76 1013.30 1012.62 1011.80 1010.95 1010.15 1009.45 1008.89 1008.43 1008.04 1007.64 1007.16 1006.55 1005.77 1004.84 1003.80 1002.72 1001.68 1000.77 1000.05 999.57 999.33 999.33 999.54 999.92 1000.43 1001.04 1001.71 1002.41 1003.12 1003.84 1004.53 1005.20 1005.83 1006.41 1006.93 1007.42 1007.87 1008.31 1008.76 1009.23 1009.74 1010.29
1012.22 1012.85 1013.46 1013.96 1014.26 1014.29 1014.03 1013.49 1012.75 1011.87 1010.98 1010.15 1009.44 1008.88 1008.46 1008.11 1007.78 1007.39 1006.88 1006.20 1005.36 1004.39 1003.34 1002.28 1001.30 1000.47 999.83 999.42 999.24 999.28 999.53 999.94 1000.48 1001.11 1001.81 1002.54 1003.28 1004.01 1004.70 1005.34 1005.92 1006.44 1006.91 1007.34 1007.76 1008.18 1008.63 1009.10 1009.62
1012.71 1013.27 1013.80 1014.20 1014.41 1014.37 1014.06 1013.50 1012.74 1011.87 1010.99 1010.17 1009.48 1008.93 1008.51 1008.19 1007.89 1007.55 1007.10 1006.50 1005.74 1004.84 1003.85 1002.82 1001.82 1000.93 1000.20 999.66 999.34 999.24 999.35 999.65 1000.10 1000.68 1001.34 1002.06 1002.79 1003.52 1004.21 1004.84 1005.42 1005.92 1006.38 1006.80 1007.19 1007.59 1008.01 1008.46 1008.94
1013.04 1013.47 1013.87 1014.15 1014.27 1014.16 1013.84 1013.29 1012.59 1011.79 1010.98 1010.22 1009.57 1009.04 1008.63 1008.29 1007.98 1007.64 1007.21 1006.65 1005.96 1005.13 1004.21 1003.24 1002.28 1001.39 1000.63 1000.02 999.61 999.40 999.39 999.57 999.93 1000.42 1001.01 1001.67 1002.36 1003.05 1003.72 1004.33 1004.88 1005.37 1005.81 1006.21 1006.60 1006.99 1007.39 1007.82 1008.27
1013.14 1013.41 1013.65 1013.80 1013.82 1013.67 1013.36 1012.89 1012.29 1011.63 1010.94 1010.29 1009.71 1009.20 1008.78 1008.41 1008.05 1007.66 1007.21 1006.65 1005.99 1005.23 1004.40 1003.51 1002.63 1001.80 1001.06 1000.44 999.99 999.71 999.60 999.68 999.93 1000.31 1000.80 1001.37 1001.98 1002.60 1003.21 1003.77 1004.29 1004.75 1005.18 1005.58 1005.97 1006.35 1006.76 1007.18 1007.63
Thickness
5834 5833 5830 5819 5798 5776 5774 5791 5805 5808 5814 5826 5829 5822 5809 5800 5790 5779 5802 5808 5805 5801 5798 5796 5794 5792 5790 5788 5786 5785 5783 5782 5780 5779 5778 5776 5775 5773 5771 5770 5769 5768 5767 5766 5765 5764 5763 5763 5762
5834 5833 5822 5805 5780 5759 5772 5796 5803 5811 5821 5830 5829 5822 5811 5803 5808 5803 5803 5805 5804 5801 5798 5795 5793 5791 5788 5787 5785 5783 5782 5780 5779 5777 5776 5774 5773 5771 5769 5768 5767 5766 5765 5764 5763 5762 5762 5761 5761
5835 5831 5810 5790 5774 5764 5778 5799 5808 5819 5831 5830 5823 5821 5812 5804 5808 5806 5807 5806 5803 5799 5797 5794 5792 5790 5787 5785 5784 5782 5780 5779 5777 5776 5774 5772 5770 5769 5768 5767 5766 5765 5763 5762 5761 5761 5760 5760 5759
5829 5816 5803 5782 5775 5788 5798 5807 5816 5818 5823 5828 5821 5809 5812 5820 5817 5812 5810 5807 5802 5798 5795 5793 5791 5788 5786 5784 5783 5780 5778 5777 5775 5774 5772 5770 5768 5767 5766 5765 5764 5763 5761 5761 5760 5759 5758 5758 5757
5824 5803 5784 5772 5780 5799 5812 5820 5822 5818 5818 5820 5817 5801 5802 5819 5822 5816 5810 5806 5801 5796 5794 5792 5790 5787 5784 5783 5781 5779 5777 5775 5773 5772 5771 5769 5767 5765 5764 5763 5762 5761 5760 5759 5758 5758 5757 5756 5755
5806 5792 5768 5764 5780 5802 5815 5824 5824 5819 5816 5816 5812 5800 5800 5816 5816 5812 5810 5805 5802 5798 5794 5791 5788 5786 5783 5781 5780 5778 5776 5773 5771 5770 5769 5767 5766 5764 5763 5761 5760 5759 5758 5757 5757 5756 5756 5755 5754
5798 5783 5770 5775 5781 5794 5813 5826 5821 5815 5812 5815 5816 5797 5798 5808 5814 5813 5809 5804 5801 5798 5794 5791 5788 5784 5782 5780 5778 5776 5775 5772 5770 5769 5767 5766 5765 5763 5762 5760 5759 5758 5756 5756 5755 5755 5754 5754 5753
5808 5786 5776 5777 5782 5791 5817 5825 5825 5819 5814 5825 5821 5799 5793 5806 5813 5811 5806 5801 5797 5794 5792 5789 5787 5784 5781 5779 5777 5775 5773 5771 5769 5768 5766 5765 5763 5762 5760 5759 5758 5757 5756 5755 5754 5753 5753 5752 5752
5813 5777 5767 5780 5788 5798 5818 5819 5823 5829 5823 5821 5823 5817 5816 5816 5811 5804 5797 5793 5790 5790 5789 5787 5786 5783 5781 5778 5777 5774 5771 5769 5768 5766 5765 5763 5762 5760 5759 5758 5756 5755 5755 5754 5753 5752 5751 5751 5750
5796 5771 5782 5801 5807 5807 5816 5817 5819 5814 5809 5808 5810 5816 5818 5813 5806 5798 5792 5788 5786 5785 5786 5786 5784 5782 5780 5778 5775 5772 5770 5768 5766 5764 5763 5762 5760 5759 5758 5756 5755 5755 5754 5753 5752 5751 5750 5749 5748
5797 5786 5799 5808 5816 5817 5815 5815 5820 5808 5798 5804 5805 5808 5810 5806 5802 5798 5794 5792 5790 5788 5786 5785 5783 5782 5779 5777 5774 5771 5769 5766 5765 5763 5762 5760 5759 5757 5756 5755 5754 5753 5752 5751 5750 5749 5748 5747 5747
5796 5801 5806 5810 5820 5819 5816 5817 5813 5810 5810 5821 5820 5817 5811 5804 5800 5797 5795 5793 5791 5788 5786 5784 5783 5781 5779 5777 5774 5771 5768 5766 5763 5762 5760 5759 5757 5755 5754 5753 5753 5752 5751 5750 5749 5747 5747 5746 5745
5795 5800 5809 5815 5817 5818 5818 5814 5812 5811 5821 5823 5820 5814 5810 5806 5802 5800 5799 5795 5792 5788 5785 5783 5782 5780 5778 5775 5773 5770 5767 5766 5763 5761 5759 5758 5756 5755 5754 5752 5751 5750 5750 5748 5747 5746 5745 5745 5744
5797 5802 5806 5811 5813 5816 5811 5810 5809 5808 5819 5815 5811 5807 5807 5805 5802 5798 5795 5792 5790 5788 5785 5782 5781 5779 5777 5774 5771 5769 5767 5765 5763 5761 5759 5757 5756 5754 5753 5751 5750 5749 5748 5747 5746 5745 5744 5744 5743
5801 5793 5796 5804 5808 5810 5808 5795 5800 5810 5813 5807 5804 5804 5803 5802 5801 5798 5796 5793 5791 5788 5785 5782 5780 5778 5774 5771 5769 5768 5766 5764 5762 5760 5758 5757 5755 5753 5751 5749 5748 5747 5746 5745 5744 5742 5742 5741 5740
5787 5778 5771 5792 5804 5807 5795 5773 5796 5808 5805 5799 5800 5799 5797 5796 5798 5798 5797 5794 5790 5787 5784 5782 5780 5776 5772 5770 5769 5767 5765 5763 5761 5759 5757 5756 5754 5753 5750 5748 5746 5745 5744 5743 5741 5739 5737 5736 5736
5763 5756 5762 5779 5800 5801 5789 5775 5792 5803 5800 5794 5794 5793 5791 5789 5790 5793 5794 5792 5789 5786 5782 5779 5777 5773 5770 5768 5767 5765 5763 5761 5759 5757 5756 5755 5753 5751 5749 5747 5745 5744 5742 5741 5739 5737 5736 5733 5732
5748 5755 5761 5767 5787 5789 5778 5775 5787 5795 5797 5792 5791 5789 5788 5785 5785 5789 5790 5790 5787 5784 5780 5776 5773 5771 5769 5766 5764 5761 5760 5759 5758 5756 5755 5753 5751 5749 5747 5745 5743 5742 5739 5738 5736 5734 5733 5732 5730
5762 5758 5756 5769 5787 5780 5772 5772 5781 5788 5790 5788 5786 5785 5784 5783 5785 5786 5786 5786 5783 5780 5776 5772 5769 5767 5766 5763 5759 5756 5754 5755 5754 5754 5752 5751 5749 5747 5744 5742 5741 5739 5737 5735 5734 5732 5730 5728 5727
5761 5752 5753 5766 5782 5776 5766 5768 5779 5784 5784 5787 5785 5783 5782 5780 5779 5780 5780 5780 5778 5775 5773 5769 5767 5764 5763 5762 5759 5757 5754 5752 5752 5751 5750 5748 5747 5745 5743 5740 5738 5737 5735 5732 5731 5729 5726 5724 5724
5757 5751 5754 5757 5768 5771 5763 5752 5764 5775 5782 5785 5784 5783 5782 5779 5775 5775 5775 5774 5773 5770 5769 5768 5765 5762 5760 5759 5757 5754 5751 5748 5747 5746 5745 5745 5744 5743 5741 5738 5736 5735 5733 5729 5727 5726 5723 5719 5720
5747 5767 5767 5762 5749 5739 5751 5724 5746 5758 5765 5772 5774 5774 5775 5776 5775 5773 5772 5770 5768 5767 5766 5764 5762 5760 5758 5756 5753 5750 5746 5743 5743 5743 5743 5742 5742 5740 5738 5736 5734 5733 5730 5727 5725 5725 5722 5719 5715
5759 5772 5768 5762 5748 5735 5739 5723 5731 5749 5749 5758 5765 5770 5772 5774 5773 5771 5770 5768 5766 5765 5762 5760 5758 5755 5754 5752 5750 5747 5744 5743 5742 5741 5740 5738 5738 5737 5736 5734 5732 5730 5727 5725 5724 5722 5720 5718 5714
5771 5763 5755 5744 5729 5713 5729 5720 5719 5735 5745 5754 5761 5766 5768 5770 5769 5768 5766 5764 5762 5760 5758 5755 5752 5750 5749 5748 5746 5744 5742 5740 5737 5735 5734 5733 5733 5733 5732 5731 5729 5727 5725 5723 5722 5720 5717 5715 5713
5757 5729 5707 5703 5696 5703 5729 5721 5720 5744 5754 5756 5757 5761 5765 5764 5763 5760 5758 5756 5755 5753 5751 5749 5747 5744 5744 5743 5741 5740 5739 5737 5734 5732 5730 5729 5727 5727 5728 5727 5725 5723 5722 5721 5718 5716 5714 5712 5710
5743 5729 5700 5688 5688 5700 5719 5712 5726 5750 5757 5759 5759 5758 5758 5757 5756 5755 5754 5753 5751 5748 5746 5744 5742 5740 5740 5739 5737 5736 5735 5733 5730 5728 5726 5725 5724 5724 5724 5723 5721 5720 5718 5717 5714 5712 5711 5709 5707
5737 5726 5727 5705 5701 5694 5699 5713 5730 5745 5747 5749 5751 5751 5750 5751 5751 5750 5749 5748 5746 5745 5742 5741 5738 5736 5735 5734 5732 5731 5730 5728 5726 5724 5722 5721 5720 5720 5719 5718 5716 5715 5714 5712 5711 5709 5707 5705 5704
5746 5735 5713 5699 5685 5681 5693 5702 5708 5725 5732 5738 5740 5740 5742 5744 5743 5743 5743 5743 5741 5741 5739 5738 5735 5732 5731 5729 5727 5726 5724 5724 5722 5721 5718 5717 5716 5716 5714 5713 5711 5710 5708 5708 5706 5704 5703 5701 5700
5730 5725 5714 5700 5694 5680 5676 5690 5725 5726 5731 5732 5734 5736 5736 5737 5737 5737 5736 5736 5736 5734 5732 5730 5729 5727 5725 5724 5722 5720 5719 5718 5717 5715 5714 5713 5712 5710 5709 5707 5706 5704 5704 5703 5701 5700 5699 5697 5695
5731 5721 5708 5691 5689 5687 5679 5688 5727 5727 5730 5731 5731 5733 5732 5732 5731 5731 5730 5728 5726 5725 5724 5723 5723 5721 5720 5719 5717 5714 5713 5712 5710 5709 5708 5707 5705 5704 5703 5702 5701 5700 5699 5698 5696 5695 5694 5692 5690